Weather History for Syracuse, NY

Change the Weather History Date:

Wednesday, December 5, 2012

  Actual Average Record
Temperature  
Mean Temperature 40 °F 33 °F  
Max Temperature 50 °F 40 °F 69 °F (2001)
Min Temperature 30 °F 26 °F 0 °F (1926)
Degree Days  
Heating Degree Days 25 32  
Month to date heating degree days 100 155  
Since 1 July heating degree days 1305 1504  
Cooling Degree Days 0 0  
Month to date cooling degree days 0 0  
Year to date cooling degree days 953 569  
Moisture  
Dew Point 30 °F    
Average Humidity 71    
Maximum Humidity 89    
Minimum Humidity 53    
Precipitation  
Precipitation 0.15 in 0.12 in 1.05 in (1994)
Month to date precipitation 0.84 0.58  
Year to date precipitation 28.38 35.83  
Snow  
Snow 0.10 in 1.00 in 15.20 in (1991)
Month to date snowfall 0.1 4.5  
Since 1 July snowfall 2.9 14.4  
Snow Depth 0.00 in    
Sea Level Pressure  
Sea Level Pressure 30.15 in    
Wind  
Wind Speed 14 mph (WNW)    
Max Wind Speed 24 mph    
Max Gust Speed 32 mph    
Visibility 7 miles    
Events Rain , Snow    
T = Trace of Precipitation, MM = Missing Value Source: NWS Daily Summary

Daily Weather History Graph

Daily Weather History Graph

Search for Another Location

Airport:

Trip Planner

Search our weather history database for the weather conditions in past years. The results will help you decide how hot, cold, wet, or windy it might be!

Date:

Astronomy

Dec. 05, 2012 Rise Set
Actual Time 7:20 AM EST 4:29 PM EST
Civil Twilight 6:48 AM EST 5:01 PM EST
Nautical Twilight 6:13 AM EST 5:37 PM EST
Astronomical Twilight 5:38 AM EST 6:11 PM EST
Moon 11:24 PM EST (12/5) 11:36 AM EST (12/5)
Length of Visible Light 10h 12m
Length of Day
9h 08m
Waning Gibbous, 60% of the Moon is Illuminated
Dec 5
Waning Gibbous
Dec 6
Last Quarter
Dec 13
New
Dec 20
First Quarter
Dec 28
Full

Hourly Weather History & Observations

Time (EST) Temp. Windchill Dew Point Humidity Pressure Visibility Wind Dir Wind Speed Gust Speed Precip Events Conditions
12:54 AM 48.0 °F - 45.0 °F 89% 29.95 in 9.0 mi WSW 11.5 mph - 0.11 in Rain Rain
1:54 AM 46.9 °F - 44.1 °F 90% 29.96 in 10.0 mi SW 9.2 mph - 0.02 in   Overcast
2:54 AM 46.9 °F - 43.0 °F 86% 29.97 in 10.0 mi WSW 13.8 mph - N/A   Overcast
3:42 AM 46.4 °F 40.4 °F 42.8 °F 87% 29.97 in 10.0 mi WSW 13.8 mph - N/A   Overcast
3:54 AM 45.0 °F 38.9 °F 41.0 °F 86% 29.98 in 10.0 mi West 12.7 mph - N/A   Mostly Cloudy
4:54 AM 46.0 °F 39.9 °F 41.0 °F 83% 29.99 in 10.0 mi West 13.8 mph - N/A   Overcast
5:54 AM 45.0 °F 39.3 °F 39.9 °F 82% 30.00 in 10.0 mi WSW 11.5 mph - N/A   Mostly Cloudy
6:18 AM 44.6 °F 38.1 °F 37.4 °F 76% 30.02 in 10.0 mi WNW 13.8 mph - N/A   Overcast
6:54 AM 43.0 °F 36.4 °F 37.0 °F 80% 30.03 in 10.0 mi WNW 12.7 mph - 0.00 in Rain Light Rain
7:32 AM 39.2 °F 29.3 °F 35.6 °F 87% 30.06 in 7.0 mi WNW 20.7 mph 31.1 mph 0.00 in Rain Light Rain
7:54 AM 39.9 °F 32.1 °F 35.1 °F 83% 30.07 in 10.0 mi West 13.8 mph - 0.00 in Rain Light Rain
9:54 AM 37.9 °F 28.5 °F 28.0 °F 68% 30.13 in 10.0 mi West 17.3 mph 25.3 mph 0.00 in Snow Light Snow
10:54 AM 37.9 °F 27.6 °F 27.0 °F 65% 30.14 in 10.0 mi West 20.7 mph 26.5 mph 0.00 in Snow Light Snow
11:54 AM 39.0 °F 29.9 °F 26.1 °F 60% 30.12 in 10.0 mi West 17.3 mph 28.8 mph 0.00 in   Overcast
12:36 PM 37.4 °F 26.4 °F 26.6 °F 65% 30.14 in 1.5 mi West 23.0 mph 29.9 mph 0.00 in Snow Light Snow
12:42 PM 33.8 °F 22.8 °F 28.4 °F 81% 30.14 in 0.8 mi West 18.4 mph 29.9 mph 0.00 in Snow Light Snow
12:45 PM 33.8 °F 24.8 °F 28.4 °F 81% 30.14 in 1.0 mi West 12.7 mph 29.9 mph 0.00 in Snow Light Snow
12:54 PM 36.0 °F 28.0 °F 30.9 °F 82% 30.14 in 5.0 mi WNW 11.5 mph - 0.01 in Snow Light Snow
1:39 PM 35.6 °F 27.1 °F 28.4 °F 75% 30.15 in 2.5 mi WNW 12.7 mph 17.3 mph 0.00 in Snow Light Snow
1:46 PM 35.6 °F 26.6 °F 28.4 °F 75% 30.15 in 1.5 mi WNW 13.8 mph - 0.01 in Snow Light Snow
1:50 PM 35.6 °F 25.2 °F 28.4 °F 75% 30.15 in 0.8 mi WNW 18.4 mph 23.0 mph 0.01 in Snow Light Snow
1:54 PM 34.0 °F 24.2 °F 28.9 °F 82% 30.16 in 1.0 mi West 15.0 mph 24.2 mph 0.02 in Snow Light Snow
2:00 PM 33.8 °F 23.9 °F 30.2 °F 87% 30.16 in 2.5 mi WNW 15.0 mph 23.0 mph 0.00 in Snow Light Snow
2:08 PM 33.8 °F 23.5 °F 28.4 °F 81% 30.17 in 2.5 mi WNW 16.1 mph 24.2 mph 0.00 in Snow Light Snow
2:10 PM 33.8 °F 23.5 °F 28.4 °F 81% 30.16 in 1.8 mi WNW 16.1 mph 24.2 mph 0.00 in Snow Light Snow
2:25 PM 33.8 °F 25.3 °F 30.2 °F 87% 30.17 in 2.5 mi WNW 11.5 mph - 0.00 in Snow Light Snow
2:29 PM 33.8 °F 23.9 °F 30.2 °F 87% 30.17 in 4.0 mi West 15.0 mph 20.7 mph 0.00 in Snow Light Snow
2:37 PM 33.8 °F 24.8 °F 30.2 °F 87% 30.17 in 9.0 mi West 12.7 mph 20.7 mph 0.00 in Snow Light Snow
2:48 PM 33.8 °F 23.2 °F 30.2 °F 87% 30.18 in 2.5 mi West 17.3 mph 21.9 mph 0.00 in Snow Light Snow
2:52 PM 33.8 °F 23.5 °F 30.2 °F 87% 30.18 in 1.5 mi WNW 16.1 mph 21.9 mph 0.00 in Snow Light Snow
2:54 PM 33.1 °F 21.5 °F 30.0 °F 89% 30.19 in 1.5 mi WNW 19.6 mph 24.2 mph 0.00 in Snow Light Snow
3:02 PM 33.8 °F 23.9 °F 28.4 °F 81% 30.19 in 2.0 mi WNW 15.0 mph 27.6 mph 0.00 in Snow Light Snow
3:15 PM 33.8 °F 23.2 °F 28.4 °F 81% 30.20 in 1.5 mi WNW 17.3 mph - 0.00 in Snow Light Snow
3:33 PM 33.8 °F 23.5 °F 28.4 °F 81% 30.21 in 6.0 mi WNW 16.1 mph - 0.00 in Snow Light Snow
3:47 PM 33.8 °F 24.3 °F 26.6 °F 75% 30.21 in 9.0 mi WNW 13.8 mph 23.0 mph 0.00 in   Mostly Cloudy
3:54 PM 34.0 °F 22.1 °F 26.1 °F 73% 30.22 in 10.0 mi WNW 21.9 mph 28.8 mph 0.00 in   Mostly Cloudy
4:54 PM 32.0 °F 22.1 °F 24.1 °F 73% 30.25 in 7.0 mi NW 13.8 mph 24.2 mph 0.00 in Snow Light Snow
5:54 PM 33.1 °F 23.9 °F 23.0 °F 66% 30.27 in 9.0 mi WNW 12.7 mph - 0.00 in Snow Light Snow
6:54 PM 32.0 °F 22.5 °F 21.0 °F 64% 30.30 in 9.0 mi NW 12.7 mph - 0.00 in Snow Light Snow
7:54 PM 32.0 °F 23.0 °F 19.9 °F 61% 30.31 in 9.0 mi NW 11.5 mph 17.3 mph 0.00 in Snow Light Snow
8:54 PM 30.9 °F 22.2 °F 18.0 °F 59% 30.32 in 10.0 mi NW 10.4 mph - 0.00 in   Overcast
9:54 PM 30.9 °F 22.8 °F 17.1 °F 57% 30.33 in 10.0 mi NW 9.2 mph - N/A   Overcast
10:54 PM 30.0 °F 22.4 °F 16.0 °F 56% 30.33 in 10.0 mi North 8.1 mph - N/A   Overcast
11:54 PM 30.0 °F 22.4 °F 16.0 °F 56% 30.35 in 10.0 mi North 8.1 mph - N/A   Overcast